Location: Innerarity Island Observatory
(30.3139°N, 87.4867°W)
Time: 06:24:28
(UTC-05:00)

JAS-2 - Visible Passes

Search period start: 23 August 2014 00:00
Search period end: 02 September 2014 00:00
Orbit: 799 x 1322 km, 98.5° (Epoch: 22 August)

Date Brightness Start Highest point End Pass type
(mag) Time Alt. Az. Time Alt. Az. Time Alt. Az.
23 Aug 11.9 05:57:33 10° NE 06:01:26 21° E 06:05:28 10° SE visible
25 Aug 12.0 05:52:45 10° NE 05:56:29 19° E 06:00:22 10° SE visible
27 Aug 12.1 05:47:59 10° NE 05:51:32 18° E 05:55:14 10° SE visible
29 Aug 12.2 05:43:13 10° ENE 05:46:35 17° E 05:50:06 10° SE visible
31 Aug 12.2 05:38:29 10° ENE 05:41:39 15° E 05:44:57 10° SE visible
